Location: Dodgeville, WI 53533, USA
(43.0344°N, 90.0900°W)
Time: 18:51:58
(UTC-05:00)

N. Korean satellite - Visible Passes

Search period start: 20 October 2018 00:00
Search period end: 30 October 2018 00:00
Orbit: 459 x 510 km, 97.2° (Epoch: 20 October)

Date Brightness Start Highest point End Pass type
(mag) Time Alt. Az. Time Alt. Az. Time Alt. Az.
20 Oct 10.0 06:29:38 10° NE 06:32:02 17° E 06:34:23 10° SE visible
20 Oct 6.9 18:38:11 10° S 18:41:54 77° W 18:45:39 10° NNW visible
21 Oct 10.4 19:50:09 10° WSW 19:51:16 11° W 19:52:24 10° WNW visible
22 Oct 9.5 19:23:45 10° SW 19:26:38 21° W 19:29:34 10° NW visible
23 Oct 9.1 06:49:08 10° NE 06:52:19 28° E 06:55:26 10° SSE visible
23 Oct 8.2 18:58:34 10° S 19:02:06 41° W 19:05:40 10° NNW visible
24 Oct 10.1 06:25:37 10° NE 06:27:43 15° E 06:29:47 10° SE visible
24 Oct 6.7 18:33:54 10° SSE 18:37:39 86° W 18:41:24 10° NNW visible
25 Oct 10.3 19:45:19 10° WSW 19:46:57 12° W 19:48:35 10° WNW visible
26 Oct 9.3 19:19:17 10° SSW 19:22:20 23° W 19:25:23 10° NW visible
27 Oct 9.3 06:44:57 10° NE 06:47:59 25° E 06:50:57 10° SSE visible
27 Oct 7.9 18:54:12 10° S 18:57:48 46° W 19:01:25 10° NNW visible
28 Oct 10.2 06:21:38 10° ENE 06:23:21 13° E 06:25:03 10° ESE visible
28 Oct 6.6 18:29:36 10° SSE 18:33:20 84° ENE 18:37:05 10° N visible
29 Oct 10.2 19:40:38 10° WSW 19:42:36 14° W 19:44:35 10° WNW visible
